Time,TemperatureF,DewpointF,PressureIn,WindDirection,WindDirectionDegrees,WindSpeedMPH,WindSpeedGustMPH,Humidity,HourlyPrecipIn,Conditions,Clouds,dailyrainin,SoftwareType,DateUTC
2013-03-11 00:01:00,19.9,16.9,29.98,NNW,335,18.0,24.0,88,0.00,,,0.00,meteohub,2013-03-11 05:01:00,
2013-03-11 00:06:00,19.9,16.9,29.98,NW,313,15.0,24.0,88,0.00,,,0.00,meteohub,2013-03-11 05:06:00,
2013-03-11 00:11:00,19.8,17.1,29.98,NW,313,24.0,25.0,89,0.00,,,0.00,meteohub,2013-03-11 05:11:00,
2013-03-11 00:16:00,19.8,17.1,29.98,NNW,344,13.0,25.0,89,0.00,,,0.00,meteohub,2013-03-11 05:16:00,
2013-03-11 00:21:00,19.6,16.5,29.98,NW,307,13.0,25.0,88,0.00,,,0.00,meteohub,2013-03-11 05:21:00,
2013-03-11 00:26:00,19.4,16.5,29.98,NW,319,20.0,25.0,88,0.00,,,0.00,meteohub,2013-03-11 05:26:00,
2013-03-11 00:31:00,19.2,16.3,29.98,NW,316,20.0,26.0,88,0.00,,,0.00,meteohub,2013-03-11 05:31:00,
2013-03-11 00:36:00,19.2,16.3,29.97,NNW,337,16.0,27.0,88,0.00,,,0.00,meteohub,2013-03-11 05:36:00,
2013-03-11 00:41:00,19.0,16.2,29.97,NW,320,15.0,28.0,88,0.00,,,0.00,meteohub,2013-03-11 05:41:00,
2013-03-11 00:46:00,18.9,16.0,29.97,NNW,329,10.0,28.0,88,0.00,,,0.00,meteohub,2013-03-11 05:46:00,
2013-03-11 00:51:00,18.5,15.6,29.97,NNW,329,11.0,26.0,88,0.00,,,0.00,meteohub,2013-03-11 05:51:00,
2013-03-11 00:56:00,18.1,15.3,29.97,NW,309,16.0,20.0,88,0.00,,,0.00,meteohub,2013-03-11 05:56:00,
2013-03-11 01:01:00,18.0,15.1,29.96,NNW,348,6.0,21.0,88,0.00,,,0.00,meteohub,2013-03-11 06:01:00,
2013-03-11 01:06:00,17.8,14.9,29.96,NNW,348,11.0,21.0,88,0.00,,,0.00,meteohub,2013-03-11 06:06:00,
2013-03-11 01:11:00,17.8,14.9,29.96,North,350,14.0,21.0,88,0.00,,,0.00,meteohub,2013-03-11 06:11:00,
2013-03-11 01:16:00,17.4,14.5,29.96,NNW,340,10.0,16.0,88,0.00,,,0.00,meteohub,2013-03-11 06:16:00,
2013-03-11 01:22:00,17.2,14.4,29.96,NNW,328,12.0,18.0,88,0.00,,,0.00,meteohub,2013-03-11 06:22:00,
2013-03-11 01:27:00,17.1,14.2,29.96,NW,326,10.0,18.0,88,0.00,,,0.00,meteohub,2013-03-11 06:27:00,
2013-03-11 01:32:00,16.9,14.0,29.96,NW,316,10.0,18.0,88,0.00,,,0.00,meteohub,2013-03-11 06:32:00,
2013-03-11 01:37:00,16.7,13.8,29.96,NNW,348,9.0,17.0,88,0.00,,,0.00,meteohub,2013-03-11 06:37:00,
2013-03-11 01:42:00,16.5,13.6,29.96,NNW,334,12.0,17.0,88,0.00,,,0.00,meteohub,2013-03-11 06:42:00,
2013-03-11 01:47:00,16.3,13.6,29.96,NNW,327,9.0,16.0,89,0.00,,,0.00,meteohub,2013-03-11 06:47:00,
2013-03-11 01:52:00,16.2,13.5,29.96,NNW,327,9.0,21.0,89,0.00,,,0.00,meteohub,2013-03-11 06:52:00,
2013-03-11 01:57:00,16.2,13.5,29.97,NW,321,12.0,21.0,89,0.00,,,0.00,meteohub,2013-03-11 06:57:00,
2013-03-11 02:02:00,16.0,13.3,29.97,NW,307,9.0,21.0,89,0.00,,,0.00,meteohub,2013-03-11 07:02:00,
2013-03-11 02:07:00,16.0,13.6,29.97,NW,312,8.0,17.0,90,0.00,,,0.00,meteohub,2013-03-11 07:07:00,
2013-03-11 02:12:00,16.0,13.3,29.98,WNW,289,4.0,17.0,89,0.00,,,0.00,meteohub,2013-03-11 07:12:00,
2013-03-11 02:17:00,16.0,13.3,29.98,NW,318,13.0,17.0,89,0.00,,,0.00,meteohub,2013-03-11 07:17:00,
2013-03-11 02:22:00,16.0,13.3,29.99,WNW,301,7.0,17.0,89,0.00,,,0.00,meteohub,2013-03-11 07:22:00,
2013-03-11 02:27:00,16.0,13.3,29.98,NW,311,9.0,17.0,89,0.00,,,0.00,meteohub,2013-03-11 07:27:00,
2013-03-11 02:32:00,16.0,13.3,29.98,NNW,344,12.0,16.0,89,0.00,,,0.00,meteohub,2013-03-11 07:32:00,
2013-03-11 02:37:00,15.8,12.9,29.98,NNW,340,7.0,16.0,88,0.00,,,0.00,meteohub,2013-03-11 07:37:00,
2013-03-11 02:42:00,15.4,12.6,29.98,NNW,348,7.0,16.0,88,0.00,,,0.00,meteohub,2013-03-11 07:42:00,
2013-03-11 02:47:00,15.4,12.6,29.98,NNW,332,4.0,16.0,88,0.00,,,0.00,meteohub,2013-03-11 07:47:00,
2013-03-11 02:52:00,15.3,12.4,29.97,NW,326,12.0,14.0,88,0.00,,,0.00,meteohub,2013-03-11 07:52:00,
2013-03-11 02:57:00,15.3,12.4,29.97,NW,321,17.0,17.0,88,0.00,,,0.00,meteohub,2013-03-11 07:57:00,
2013-03-11 03:02:00,15.4,12.6,29.97,North,355,14.0,17.0,88,0.00,,,0.00,meteohub,2013-03-11 08:02:00,
2013-03-11 03:07:00,15.4,12.6,29.97,NNW,330,6.0,19.0,88,0.00,,,0.00,meteohub,2013-03-11 08:07:00,
2013-03-11 03:12:00,15.4,12.6,29.96,NNW,339,9.0,19.0,88,0.00,,,0.00,meteohub,2013-03-11 08:12:00,
2013-03-11 03:17:00,15.3,12.0,29.96,NNW,329,6.0,19.0,87,0.00,,,0.00,meteohub,2013-03-11 08:17:00,
2013-03-11 03:23:00,15.3,12.0,29.96,NNW,334,10.0,17.0,87,0.00,,,0.00,meteohub,2013-03-11 08:23:00,
2013-03-11 03:28:00,15.3,12.0,29.95,NNW,345,10.0,16.0,87,0.00,,,0.00,meteohub,2013-03-11 08:28:00,
2013-03-11 03:33:00,15.3,12.0,29.94,North,351,10.0,18.0,87,0.00,,,0.00,meteohub,2013-03-11 08:33:00,
2013-03-11 03:38:00,15.1,11.8,29.94,NNW,338,11.0,18.0,87,0.00,,,0.00,meteohub,2013-03-11 08:38:00,
2013-03-11 03:43:00,15.1,11.8,29.94,NW,325,8.0,18.0,87,0.00,,,0.00,meteohub,2013-03-11 08:43:00,
2013-03-11 03:48:00,15.1,11.7,29.94,North,0,13.0,17.0,86,0.00,,,0.00,meteohub,2013-03-11 08:48:00,
2013-03-11 03:53:00,14.9,11.5,29.94,NW,319,9.0,18.0,86,0.00,,,0.00,meteohub,2013-03-11 08:53:00,
2013-03-11 03:58:00,14.7,11.3,29.93,North,351,10.0,18.0,86,0.00,,,0.00,meteohub,2013-03-11 08:58:00,
2013-03-11 04:03:00,14.7,11.3,29.93,NNW,342,12.0,15.0,86,0.00,,,0.00,meteohub,2013-03-11 09:03:00,
2013-03-11 04:08:00,14.7,11.3,29.93,NNW,343,6.0,15.0,86,0.00,,,0.00,meteohub,2013-03-11 09:08:00,
2013-03-11 04:13:00,14.5,11.1,29.93,NNW,335,4.0,14.0,86,0.00,,,0.00,meteohub,2013-03-11 09:13:00,
2013-03-11 04:18:00,14.4,10.9,29.93,NNW,333,5.0,14.0,86,0.00,,,0.00,meteohub,2013-03-11 09:18:00,
2013-03-11 04:23:00,14.4,10.9,29.93,NW,310,7.0,12.0,86,0.00,,,0.00,meteohub,2013-03-11 09:23:00,
2013-03-11 04:28:00,14.4,10.9,29.93,NW,324,7.0,15.0,86,0.00,,,0.00,meteohub,2013-03-11 09:28:00,
2013-03-11 04:33:00,14.5,11.1,29.93,NW,315,9.0,15.0,86,0.00,,,0.00,meteohub,2013-03-11 09:33:00,
2013-03-11 04:38:00,14.7,11.3,29.93,NW,324,7.0,15.0,86,0.00,,,0.00,meteohub,2013-03-11 09:38:00,
2013-03-11 04:43:00,14.7,11.3,29.93,NW,315,10.0,15.0,86,0.00,,,0.00,meteohub,2013-03-11 09:43:00,
2013-03-11 04:48:00,14.7,11.3,29.93,NW,321,9.0,15.0,86,0.00,,,0.00,meteohub,2013-03-11 09:48:00,
2013-03-11 04:53:00,14.7,11.3,29.93,NW,310,12.0,14.0,86,0.00,,,0.00,meteohub,2013-03-11 09:53:00,
2013-03-11 04:58:00,14.9,11.5,29.93,NW,304,8.0,16.0,86,0.00,,,0.00,meteohub,2013-03-11 09:58:00,
2013-03-11 05:03:00,14.9,11.3,29.93,NW,322,10.0,16.0,85,0.00,,,0.00,meteohub,2013-03-11 10:03:00,
2013-03-11 05:08:00,14.9,11.5,29.93,NW,311,8.0,16.0,86,0.00,,,0.00,meteohub,2013-03-11 10:08:00,
2013-03-11 05:13:00,14.7,11.3,29.93,NW,321,12.0,15.0,86,0.00,,,0.00,meteohub,2013-03-11 10:13:00,
2013-03-11 05:18:00,14.7,11.3,29.93,NW,311,6.0,15.0,86,0.00,,,0.00,meteohub,2013-03-11 10:18:00,
2013-03-11 05:23:00,14.5,10.9,29.93,WNW,298,9.0,15.0,85,0.00,,,0.00,meteohub,2013-03-11 10:23:00,
2013-03-11 05:28:00,14.4,10.9,29.93,NW,314,3.0,15.0,86,0.00,,,0.00,meteohub,2013-03-11 10:28:00,
2013-03-11 05:33:00,14.4,10.9,29.93,WNW,298,6.0,12.0,86,0.00,,,0.00,meteohub,2013-03-11 10:33:00,
2013-03-11 05:38:00,14.2,10.8,29.93,WNW,301,8.0,15.0,86,0.00,,,0.00,meteohub,2013-03-11 10:38:00,
2013-03-11 05:43:00,14.2,10.8,29.93,NW,311,6.0,15.0,86,0.00,,,0.00,meteohub,2013-03-11 10:43:00,
2013-03-11 05:48:00,14.2,10.8,29.93,NW,317,4.0,15.0,86,0.00,,,0.00,meteohub,2013-03-11 10:48:00,
2013-03-11 05:53:00,14.0,10.6,29.94,WNW,292,7.0,12.0,86,0.00,,,0.00,meteohub,2013-03-11 10:53:00,
2013-03-11 05:58:00,13.8,10.8,29.94,West,267,13.0,14.0,87,0.00,,,0.00,meteohub,2013-03-11 10:58:00,
2013-03-11 06:03:00,14.0,10.9,29.95,West,277,12.0,15.0,87,0.00,,,0.00,meteohub,2013-03-11 11:03:00,
2013-03-11 06:08:00,14.0,10.9,29.94,WNW,282,10.0,15.0,87,0.00,,,0.00,meteohub,2013-03-11 11:08:00,
2013-03-11 06:13:00,14.0,10.9,29.94,WNW,294,13.0,15.0,87,0.00,,,0.00,meteohub,2013-03-11 11:13:00,
2013-03-11 06:18:00,14.0,10.9,29.94,WNW,297,7.0,15.0,87,0.00,,,0.00,meteohub,2013-03-11 11:18:00,
2013-03-11 06:23:00,14.0,10.9,29.94,WNW,294,6.0,14.0,87,0.00,,,0.00,meteohub,2013-03-11 11:23:00,
2013-03-11 06:28:00,14.2,10.9,29.94,WNW,289,6.0,13.0,87,0.00,,,0.00,meteohub,2013-03-11 11:28:00,
2013-03-11 06:33:00,14.2,10.9,29.94,NW,311,6.0,14.0,87,0.00,,,0.00,meteohub,2013-03-11 11:33:00,
2013-03-11 06:38:00,14.2,10.9,29.94,WNW,296,8.0,14.0,87,0.00,,,0.00,meteohub,2013-03-11 11:38:00,
2013-03-11 06:43:00,14.0,10.9,29.94,WNW,292,10.0,14.0,87,0.00,,,0.00,meteohub,2013-03-11 11:43:00,
2013-03-11 06:49:00,14.2,11.3,29.94,WNW,297,7.0,13.0,88,0.00,,,0.00,meteohub,2013-03-11 11:49:00,
2013-03-11 06:54:00,14.2,10.9,29.94,WNW,290,9.0,13.0,87,0.00,,,0.00,meteohub,2013-03-11 11:54:00,
2013-03-11 06:59:00,14.2,10.9,29.94,NW,304,9.0,13.0,87,0.00,,,0.00,meteohub,2013-03-11 11:59:00,
2013-03-11 07:04:00,14.4,11.1,29.94,NW,313,6.0,12.0,87,0.00,,,0.00,meteohub,2013-03-11 12:04:00,
2013-03-11 07:09:00,14.4,11.1,29.94,WNW,296,6.0,11.0,87,0.00,,,0.00,meteohub,2013-03-11 12:09:00,
2013-03-11 07:14:00,14.2,10.9,29.94,WNW,295,10.0,10.0,87,0.00,,,0.00,meteohub,2013-03-11 12:14:00,
2013-03-11 07:19:00,14.2,10.9,29.94,WNW,302,10.0,11.0,87,0.00,,,0.00,meteohub,2013-03-11 12:19:00,
2013-03-11 07:24:00,14.4,11.1,29.94,WNW,298,3.0,11.0,87,0.00,,,0.00,meteohub,2013-03-11 12:24:00,
2013-03-11 07:29:00,14.4,11.1,29.94,NW,306,10.0,11.0,87,0.00,,,0.00,meteohub,2013-03-11 12:29:00,
2013-03-11 07:34:00,14.4,11.1,29.94,WNW,301,10.0,13.0,87,0.00,,,0.00,meteohub,2013-03-11 12:34:00,
2013-03-11 07:39:00,14.4,11.1,29.94,West,279,8.0,13.0,87,0.00,,,0.00,meteohub,2013-03-11 12:39:00,
2013-03-11 07:44:00,14.4,11.1,29.94,NW,304,8.0,13.0,87,0.00,,,0.00,meteohub,2013-03-11 12:44:00,
2013-03-11 07:49:00,14.4,11.1,29.94,WNW,296,8.0,12.0,87,0.00,,,0.00,meteohub,2013-03-11 12:49:00,
2013-03-11 07:54:00,14.4,11.1,29.94,WNW,302,7.0,13.0,87,0.00,,,0.00,meteohub,2013-03-11 12:54:00,
2013-03-11 07:59:00,14.4,11.1,29.94,WNW,288,13.0,14.0,87,0.00,,,0.00,meteohub,2013-03-11 12:59:00,
2013-03-11 08:04:00,14.5,11.3,29.94,West,279,9.0,14.0,87,0.00,,,0.00,meteohub,2013-03-11 13:04:00,
2013-03-11 08:09:00,14.7,11.5,29.94,WNW,296,10.0,14.0,87,0.00,,,0.00,meteohub,2013-03-11 13:09:00,
2013-03-11 08:14:00,15.1,11.8,29.94,WNW,297,6.0,14.0,87,0.00,,,0.00,meteohub,2013-03-11 13:14:00,
2013-03-11 08:19:00,15.3,11.8,29.94,WNW,286,12.0,14.0,86,0.00,,,0.00,meteohub,2013-03-11 13:19:00,
2013-03-11 08:24:00,15.4,12.0,29.94,WNW,284,10.0,14.0,86,0.00,,,0.00,meteohub,2013-03-11 13:24:00,
2013-03-11 08:29:00,15.8,12.4,29.95,WNW,284,8.0,15.0,86,0.00,,,0.00,meteohub,2013-03-11 13:29:00,
2013-03-11 08:34:00,16.0,12.2,29.94,WNW,297,10.0,15.0,85,0.00,,,0.00,meteohub,2013-03-11 13:34:00,
2013-03-11 08:39:00,16.2,12.4,29.95,WNW,295,10.0,15.0,85,0.00,,,0.00,meteohub,2013-03-11 13:39:00,
2013-03-11 08:44:00,16.5,12.7,29.94,WNW,297,9.0,14.0,85,0.00,,,0.00,meteohub,2013-03-11 13:44:00,
2013-03-11 08:49:00,17.1,13.1,29.94,WNW,290,7.0,14.0,84,0.00,,,0.00,meteohub,2013-03-11 13:49:00,
2013-03-11 08:54:00,17.4,13.1,29.94,WNW,299,9.0,15.0,83,0.00,,,0.00,meteohub,2013-03-11 13:54:00,
2013-03-11 08:59:00,18.0,13.6,29.94,NW,305,8.0,15.0,83,0.00,,,0.00,meteohub,2013-03-11 13:59:00,
2013-03-11 09:04:00,18.1,13.6,29.94,WNW,290,8.0,15.0,82,0.00,,,0.00,meteohub,2013-03-11 14:04:00,
2013-03-11 09:09:00,18.7,13.8,29.94,NW,317,6.0,15.0,81,0.00,,,0.00,meteohub,2013-03-11 14:09:00,
2013-03-11 09:14:00,19.0,13.8,29.94,WNW,303,3.0,14.0,80,0.00,,,0.00,meteohub,2013-03-11 14:14:00,
2013-03-11 09:19:00,19.2,13.8,29.94,NW,319,12.0,14.0,79,0.00,,,0.00,meteohub,2013-03-11 14:19:00,
2013-03-11 09:24:00,19.6,14.2,29.94,WNW,291,4.0,14.0,79,0.00,,,0.00,meteohub,2013-03-11 14:24:00,
2013-03-11 09:29:00,19.6,13.8,29.94,NW,315,4.0,13.0,78,0.00,,,0.00,meteohub,2013-03-11 14:29:00,
2013-03-11 09:34:00,19.6,14.2,29.94,WNW,298,7.0,14.0,79,0.00,,,0.00,meteohub,2013-03-11 14:34:00,
2013-03-11 09:39:00,19.9,14.2,29.95,NW,320,9.0,14.0,78,0.00,,,0.00,meteohub,2013-03-11 14:39:00,
2013-03-11 09:44:00,20.3,14.5,29.95,NW,305,9.0,14.0,78,0.00,,,0.00,meteohub,2013-03-11 14:44:00,
2013-03-11 09:49:00,20.8,14.7,29.95,NW,313,4.0,12.0,77,0.00,,,0.00,meteohub,2013-03-11 14:49:00,
2013-03-11 09:54:00,21.6,15.3,29.95,NW,306,8.0,13.0,76,0.00,,,0.00,meteohub,2013-03-11 14:54:00,
2013-03-11 09:59:00,21.7,15.1,29.95,WNW,302,10.0,13.0,75,0.00,,,0.00,meteohub,2013-03-11 14:59:00,
2013-03-11 10:04:00,22.1,15.1,29.95,NW,307,3.0,13.0,74,0.00,,,0.00,meteohub,2013-03-11 15:04:00,
2013-03-11 10:09:00,22.6,16.0,29.95,WNW,300,3.0,13.0,75,0.00,,,0.00,meteohub,2013-03-11 15:09:00,
2013-03-11 10:14:00,23.2,16.2,29.95,WNW,296,5.0,13.0,74,0.00,,,0.00,meteohub,2013-03-11 15:14:00,
2013-03-11 10:19:00,23.5,15.8,29.95,WNW,296,2.0,11.0,72,0.00,,,0.00,meteohub,2013-03-11 15:19:00,
2013-03-11 10:24:00,23.7,16.3,29.94,NW,317,6.0,10.0,73,0.00,,,0.00,meteohub,2013-03-11 15:24:00,
2013-03-11 10:29:00,23.5,15.4,29.94,WNW,294,2.0,10.0,71,0.00,,,0.00,meteohub,2013-03-11 15:29:00,
2013-03-11 10:35:00,23.9,15.8,29.94,NW,304,6.0,10.0,71,0.00,,,0.00,meteohub,2013-03-11 15:35:00,
2013-03-11 10:40:00,24.3,16.5,29.94,NW,306,3.0,10.0,72,0.00,,,0.00,meteohub,2013-03-11 15:40:00,
2013-03-11 10:45:00,24.6,16.5,29.94,WNW,297,9.0,10.0,71,0.00,,,0.00,meteohub,2013-03-11 15:45:00,
2013-03-11 10:50:00,25.0,16.5,29.94,WNW,287,4.0,9.0,70,0.00,,,0.00,meteohub,2013-03-11 15:50:00,
2013-03-11 10:55:00,25.0,16.5,29.94,WNW,300,4.0,11.0,70,0.00,,,0.00,meteohub,2013-03-11 15:55:00,
2013-03-11 11:00:00,25.3,17.2,29.94,West,277,5.0,11.0,71,0.00,,,0.00,meteohub,2013-03-11 16:00:00,
2013-03-11 11:05:00,25.5,17.4,29.94,West,273,6.0,9.0,71,0.00,,,0.00,meteohub,2013-03-11 16:05:00,
2013-03-11 11:10:00,25.3,17.2,29.94,WNW,292,6.0,9.0,71,0.00,,,0.00,meteohub,2013-03-11 16:10:00,
2013-03-11 11:15:00,25.9,17.8,29.94,West,276,8.0,9.0,71,0.00,,,0.00,meteohub,2013-03-11 16:15:00,
2013-03-11 11:20:00,26.2,18.5,29.94,NW,304,4.0,10.0,72,0.00,,,0.00,meteohub,2013-03-11 16:20:00,
2013-03-11 11:25:00,27.1,18.7,29.94,West,278,8.0,11.0,70,0.00,,,0.00,meteohub,2013-03-11 16:25:00,
2013-03-11 11:30:00,26.8,17.6,29.94,WNW,286,8.0,11.0,68,0.00,,,0.00,meteohub,2013-03-11 16:30:00,
2013-03-11 11:35:00,27.1,18.7,29.94,West,275,7.0,10.0,70,0.00,,,0.00,meteohub,2013-03-11 16:35:00,
2013-03-11 11:40:00,27.7,18.9,29.94,NW,306,7.0,10.0,69,0.00,,,0.00,meteohub,2013-03-11 16:40:00,
2013-03-11 11:45:00,28.4,18.5,29.94,WNW,282,8.0,10.0,66,0.00,,,0.00,meteohub,2013-03-11 16:45:00,
2013-03-11 11:50:00,28.4,19.2,29.94,West,280,8.0,10.0,68,0.00,,,0.00,meteohub,2013-03-11 16:50:00,
2013-03-11 11:55:00,27.9,18.7,29.94,West,273,6.0,10.0,68,0.00,,,0.00,meteohub,2013-03-11 16:55:00,
2013-03-11 12:00:00,28.0,18.5,29.94,West,260,5.0,10.0,67,0.00,,,0.00,meteohub,2013-03-11 17:00:00,
2013-03-11 12:05:00,28.2,19.0,29.94,West,267,5.0,9.0,68,0.00,,,0.00,meteohub,2013-03-11 17:05:00,
2013-03-11 12:10:00,29.1,19.9,29.95,West,271,7.0,9.0,68,0.00,,,0.00,meteohub,2013-03-11 17:10:00,
2013-03-11 12:15:00,29.7,20.5,29.94,West,264,7.0,9.0,68,0.00,,,0.00,meteohub,2013-03-11 17:15:00,
2013-03-11 12:20:00,30.0,20.1,29.94,West,262,5.0,9.0,66,0.00,,,0.00,meteohub,2013-03-11 17:20:00,
2013-03-11 12:25:00,30.4,20.3,29.94,West,267,8.0,9.0,66,0.00,,,0.00,meteohub,2013-03-11 17:25:00,
2013-03-11 12:30:00,30.9,20.5,29.94,West,269,7.0,10.0,65,0.00,,,0.00,meteohub,2013-03-11 17:30:00,
2013-03-11 12:35:00,31.3,20.8,29.94,WNW,301,4.0,10.0,65,0.00,,,0.00,meteohub,2013-03-11 17:35:00,
2013-03-11 12:40:00,32.4,21.9,29.93,WNW,286,8.0,10.0,65,0.00,,,0.00,meteohub,2013-03-11 17:40:00,
2013-03-11 12:45:00,32.7,21.9,29.93,NW,313,6.0,10.0,64,0.00,,,0.00,meteohub,2013-03-11 17:45:00,
2013-03-11 12:50:00,33.3,21.2,29.92,West,281,6.0,10.0,61,0.00,,,0.00,meteohub,2013-03-11 17:50:00,
2013-03-11 12:55:00,33.4,21.7,29.92,West,270,7.0,9.0,62,0.00,,,0.00,meteohub,2013-03-11 17:55:00,
2013-03-11 13:00:00,34.0,21.9,29.92,WNW,283,6.0,9.0,61,0.00,,,0.00,meteohub,2013-03-11 18:00:00,
2013-03-11 13:05:00,34.3,21.9,29.91,West,275,7.0,9.0,60,0.00,,,0.00,meteohub,2013-03-11 18:05:00,
2013-03-11 13:10:00,34.3,22.6,29.91,West,271,5.0,9.0,62,0.00,,,0.00,meteohub,2013-03-11 18:10:00,
2013-03-11 13:15:00,35.1,22.6,29.91,NW,314,6.0,9.0,60,0.00,,,0.00,meteohub,2013-03-11 18:15:00,
2013-03-11 13:20:00,35.8,23.2,29.91,West,281,8.0,12.0,60,0.00,,,0.00,meteohub,2013-03-11 18:20:00,
2013-03-11 13:25:00,36.0,22.6,29.91,West,262,7.0,12.0,58,0.00,,,0.00,meteohub,2013-03-11 18:25:00,
2013-03-11 13:30:00,36.1,23.5,29.91,WSW,256,7.0,12.0,60,0.00,,,0.00,meteohub,2013-03-11 18:30:00,
2013-03-11 13:35:00,36.7,23.7,29.90,West,260,6.0,9.0,59,0.00,,,0.00,meteohub,2013-03-11 18:35:00,
2013-03-11 13:40:00,36.9,24.3,29.90,WSW,254,7.0,9.0,60,0.00,,,0.00,meteohub,2013-03-11 18:40:00,
2013-03-11 13:46:00,37.2,23.7,29.90,WSW,250,3.0,9.0,58,0.00,,,0.00,meteohub,2013-03-11 18:46:00,
2013-03-11 13:51:00,37.6,23.7,29.89,West,267,5.0,9.0,57,0.00,,,0.00,meteohub,2013-03-11 18:51:00,
2013-03-11 13:56:00,37.9,24.4,29.89,West,262,5.0,9.0,58,0.00,,,0.00,meteohub,2013-03-11 18:56:00,
2013-03-11 14:01:00,38.5,24.6,29.89,WSW,244,8.0,9.0,57,0.00,,,0.00,meteohub,2013-03-11 19:01:00,
2013-03-11 14:06:00,38.7,25.5,29.88,West,272,8.0,9.0,59,0.00,,,0.00,meteohub,2013-03-11 19:06:00,
2013-03-11 14:11:00,39.0,25.2,29.88,West,269,7.0,9.0,57,0.00,,,0.00,meteohub,2013-03-11 19:11:00,
2013-03-11 14:16:00,39.4,25.9,29.88,West,269,9.0,10.0,58,0.00,,,0.00,meteohub,2013-03-11 19:16:00,
2013-03-11 14:21:00,39.6,26.4,29.88,West,261,6.0,11.0,59,0.00,,,0.00,meteohub,2013-03-11 19:21:00,
2013-03-11 14:26:00,39.7,26.2,29.88,West,266,9.0,11.0,58,0.00,,,0.00,meteohub,2013-03-11 19:26:00,
2013-03-11 14:31:00,40.1,26.6,29.88,West,259,6.0,11.0,58,0.00,,,0.00,meteohub,2013-03-11 19:31:00,
2013-03-11 14:37:00,40.6,27.0,29.88,WSW,257,8.0,10.0,58,0.00,,,0.00,meteohub,2013-03-11 19:37:00,
2013-03-11 14:42:00,41.2,26.2,29.87,WSW,255,9.0,10.0,55,0.00,,,0.00,meteohub,2013-03-11 19:42:00,
2013-03-11 14:47:00,41.4,25.9,29.87,West,269,8.0,11.0,54,0.00,,,0.00,meteohub,2013-03-11 19:47:00,
2013-03-11 14:52:00,41.5,26.6,29.87,WSW,239,5.0,11.0,55,0.00,,,0.00,meteohub,2013-03-11 19:52:00,
2013-03-11 14:57:00,42.1,27.5,29.87,West,263,5.0,11.0,56,0.00,,,0.00,meteohub,2013-03-11 19:57:00,
2013-03-11 15:02:00,42.4,27.5,29.87,WSW,256,5.0,10.0,55,0.00,,,0.00,meteohub,2013-03-11 20:02:00,
2013-03-11 15:07:00,42.6,27.5,29.87,SW,232,6.0,8.0,55,0.00,,,0.00,meteohub,2013-03-11 20:07:00,
2013-03-11 15:12:00,43.2,28.9,29.86,SW,225,9.0,9.0,57,0.00,,,0.00,meteohub,2013-03-11 20:12:00,
2013-03-11 15:17:00,43.0,28.8,29.86,SW,225,5.0,10.0,57,0.00,,,0.00,meteohub,2013-03-11 20:17:00,
2013-03-11 15:22:00,43.3,29.5,29.86,SW,222,8.0,10.0,58,0.00,,,0.00,meteohub,2013-03-11 20:22:00,
2013-03-11 15:27:00,43.9,30.0,29.85,WSW,252,8.0,10.0,58,0.00,,,0.00,meteohub,2013-03-11 20:27:00,
2013-03-11 15:32:00,44.2,30.0,29.85,WSW,250,8.0,9.0,57,0.00,,,0.00,meteohub,2013-03-11 20:32:00,
2013-03-11 15:37:00,45.0,27.0,29.85,WSW,238,9.0,10.0,49,0.00,,,0.00,meteohub,2013-03-11 20:37:00,
2013-03-11 15:42:00,45.1,28.6,29.84,SW,222,7.0,10.0,52,0.00,,,0.00,meteohub,2013-03-11 20:42:00,
2013-03-11 15:47:00,45.5,28.9,29.85,WSW,239,5.0,10.0,52,0.00,,,0.00,meteohub,2013-03-11 20:47:00,
2013-03-11 15:52:00,45.7,30.0,29.84,SW,235,5.0,11.0,54,0.00,,,0.00,meteohub,2013-03-11 20:52:00,
2013-03-11 15:58:00,45.3,30.6,29.84,SSW,198,4.0,11.0,56,0.00,,,0.00,meteohub,2013-03-11 20:58:00,
2013-03-11 16:03:00,45.7,32.2,29.84,SSW,213,4.0,9.0,59,0.00,,,0.00,meteohub,2013-03-11 21:03:00,
2013-03-11 16:08:00,46.0,32.0,29.84,South,183,3.0,8.0,58,0.00,,,0.00,meteohub,2013-03-11 21:08:00,
2013-03-11 16:13:00,46.6,30.4,29.84,South,188,4.0,8.0,53,0.00,,,0.00,meteohub,2013-03-11 21:13:00,
2013-03-11 16:18:00,46.8,30.6,29.84,SSW,194,5.0,7.0,53,0.00,,,0.00,meteohub,2013-03-11 21:18:00,
2013-03-11 16:23:00,47.1,31.3,29.83,SE,138,5.0,7.0,54,0.00,,,0.00,meteohub,2013-03-11 21:23:00,
2013-03-11 16:28:00,44.2,34.0,29.84,SE,146,10.0,12.0,67,0.00,,,0.00,meteohub,2013-03-11 21:28:00,
2013-03-11 16:33:00,43.2,34.7,29.84,SSE,163,9.0,14.0,72,0.00,,,0.00,meteohub,2013-03-11 21:33:00,
2013-03-11 16:38:00,43.0,34.5,29.85,SSW,192,7.0,14.0,72,0.00,,,0.00,meteohub,2013-03-11 21:38:00,
2013-03-11 16:43:00,42.6,33.8,29.85,South,188,6.0,14.0,71,0.00,,,0.00,meteohub,2013-03-11 21:43:00,
2013-03-11 16:48:00,42.1,33.1,29.85,South,173,4.0,11.0,70,0.00,,,0.00,meteohub,2013-03-11 21:48:00,
2013-03-11 16:53:00,41.4,33.1,29.85,SSE,154,5.0,11.0,72,0.00,,,0.00,meteohub,2013-03-11 21:53:00,
2013-03-11 16:58:00,41.7,33.4,29.85,SSW,198,3.0,12.0,72,0.00,,,0.00,meteohub,2013-03-11 21:58:00,
2013-03-11 17:03:00,41.4,33.1,29.85,SSE,155,3.0,12.0,72,0.00,,,0.00,meteohub,2013-03-11 22:03:00,
2013-03-11 17:08:00,41.0,33.4,29.85,South,169,5.0,12.0,74,0.00,,,0.00,meteohub,2013-03-11 22:08:00,
2013-03-11 17:13:00,40.6,33.1,29.85,South,173,5.0,10.0,74,0.00,,,0.00,meteohub,2013-03-11 22:13:00,
2013-03-11 17:18:00,40.6,34.0,29.85,South,173,2.0,10.0,77,0.00,,,0.00,meteohub,2013-03-11 22:18:00,
2013-03-11 17:23:00,40.3,33.3,29.85,South,179,4.0,10.0,76,0.00,,,0.00,meteohub,2013-03-11 22:23:00,
2013-03-11 17:28:00,40.5,33.8,29.85,South,175,6.0,8.0,77,0.00,,,0.00,meteohub,2013-03-11 22:28:00,
2013-03-11 17:34:00,40.6,34.3,29.85,South,175,3.0,8.0,78,0.00,,,0.00,meteohub,2013-03-11 22:34:00,
2013-03-11 17:39:00,40.5,34.5,29.86,SSE,166,5.0,8.0,79,0.00,,,0.00,meteohub,2013-03-11 22:39:00,
2013-03-11 17:44:00,40.5,34.5,29.86,South,178,1.0,7.0,79,0.00,,,0.00,meteohub,2013-03-11 22:44:00,
2013-03-11 17:49:00,41.0,34.7,29.86,South,178,2.0,7.0,78,0.00,,,0.00,meteohub,2013-03-11 22:49:00,
2013-03-11 17:54:00,41.5,34.9,29.86,WNW,290,3.0,6.0,77,0.00,,,0.00,meteohub,2013-03-11 22:54:00,
2013-03-11 17:59:00,44.2,36.1,29.86,NW,313,0.0,4.0,73,0.00,,,0.00,meteohub,2013-03-11 22:59:00,
2013-03-11 18:04:00,45.0,35.8,29.86,NW,304,2.0,5.0,70,0.00,,,0.00,meteohub,2013-03-11 23:04:00,
2013-03-11 18:09:00,45.3,35.1,29.86,NNW,330,12.0,12.0,67,0.00,,,0.00,meteohub,2013-03-11 23:09:00,
2013-03-11 18:14:00,46.8,35.2,29.87,NW,312,15.0,17.0,64,0.00,,,0.00,meteohub,2013-03-11 23:14:00,
2013-03-11 18:19:00,47.1,35.2,29.87,NW,318,13.0,18.0,63,0.00,,,0.00,meteohub,2013-03-11 23:19:00,
2013-03-11 18:24:00,46.9,35.4,29.87,NW,311,6.0,18.0,64,0.00,,,0.00,meteohub,2013-03-11 23:24:00,
2013-03-11 18:29:00,46.6,35.4,29.87,NW,325,7.0,16.0,65,0.00,,,0.00,meteohub,2013-03-11 23:29:00,
2013-03-11 18:34:00,46.2,35.1,29.88,NW,311,6.0,15.0,65,0.00,,,0.00,meteohub,2013-03-11 23:34:00,
2013-03-11 18:39:00,46.2,35.1,29.88,NW,311,5.0,12.0,65,0.00,,,0.00,meteohub,2013-03-11 23:39:00,
2013-03-11 18:44:00,45.7,35.1,29.88,WNW,299,5.0,12.0,66,0.00,,,0.00,meteohub,2013-03-11 23:44:00,
2013-03-11 18:49:00,45.1,34.5,29.88,NW,319,6.0,11.0,66,0.00,,,0.00,meteohub,2013-03-11 23:49:00,
2013-03-11 18:54:00,44.8,34.5,29.88,NW,315,5.0,11.0,67,0.00,,,0.00,meteohub,2013-03-11 23:54:00,
2013-03-11 18:59:00,44.1,34.5,29.88,WNW,300,4.0,9.0,69,0.00,,,0.00,meteohub,2013-03-11 23:59:00,
2013-03-11 19:04:00,43.3,34.5,29.88,NW,311,4.0,9.0,71,0.00,,,0.00,meteohub,2013-03-12 00:04:00,
2013-03-11 19:09:00,43.3,34.2,29.88,NW,319,4.0,9.0,70,0.00,,,0.00,meteohub,2013-03-12 00:09:00,
2013-03-11 19:14:00,43.5,34.0,29.88,NW,319,6.0,6.0,69,0.00,,,0.00,meteohub,2013-03-12 00:14:00,
2013-03-11 19:19:00,43.5,33.6,29.88,NNW,330,6.0,7.0,68,0.00,,,0.00,meteohub,2013-03-12 00:19:00,
2013-03-11 19:24:00,43.7,33.4,29.89,NNW,329,7.0,7.0,67,0.00,,,0.00,meteohub,2013-03-12 00:24:00,
2013-03-11 19:29:00,43.2,34.0,29.89,NW,321,7.0,9.0,70,0.00,,,0.00,meteohub,2013-03-12 00:29:00,
2013-03-11 19:34:00,42.1,33.8,29.89,NW,317,5.0,9.0,72,0.00,,,0.00,meteohub,2013-03-12 00:34:00,
2013-03-11 19:39:00,40.6,33.6,29.90,NW,316,4.0,8.0,76,0.00,,,0.00,meteohub,2013-03-12 00:39:00,
2013-03-11 19:44:00,39.9,33.6,29.90,WNW,292,5.0,7.0,78,0.00,,,0.00,meteohub,2013-03-12 00:44:00,
2013-03-11 19:49:00,39.6,33.6,29.91,WNW,295,4.0,7.0,79,0.00,,,0.00,meteohub,2013-03-12 00:49:00,
2013-03-11 19:54:00,39.9,33.6,29.91,NW,309,4.0,7.0,78,0.00,,,0.00,meteohub,2013-03-12 00:54:00,
2013-03-11 19:59:00,40.8,33.8,29.91,NW,319,6.0,7.0,76,0.00,,,0.00,meteohub,2013-03-12 00:59:00,
2013-03-11 20:04:00,41.9,33.8,29.91,NNW,346,4.0,7.0,73,0.00,,,0.00,meteohub,2013-03-12 01:04:00,
2013-03-11 20:09:00,42.3,33.6,29.91,NNW,348,6.0,8.0,71,0.00,,,0.00,meteohub,2013-03-12 01:09:00,
2013-03-11 20:14:00,42.3,33.3,29.91,North,350,9.0,9.0,70,0.00,,,0.00,meteohub,2013-03-12 01:14:00,
2013-03-11 20:19:00,41.5,33.3,29.92,NNE,13,8.0,8.0,72,0.00,,,0.00,meteohub,2013-03-12 01:19:00,
2013-03-11 20:24:00,41.0,32.7,29.92,North,10,9.0,11.0,72,0.00,,,0.00,meteohub,2013-03-12 01:24:00,
2013-03-11 20:29:00,41.0,32.7,29.92,North,355,10.0,13.0,72,0.00,,,0.00,meteohub,2013-03-12 01:29:00,
2013-03-11 20:35:00,40.8,32.5,29.92,NNE,13,13.0,15.0,72,0.00,,,0.00,meteohub,2013-03-12 01:35:00,
2013-03-11 20:40:00,40.5,32.5,29.93,North,0,9.0,15.0,73,0.00,,,0.00,meteohub,2013-03-12 01:40:00,
2013-03-11 20:45:00,39.6,32.4,29.93,NNE,16,8.0,15.0,75,0.00,,,0.00,meteohub,2013-03-12 01:45:00,
2013-03-11 20:50:00,38.8,32.0,29.94,North,0,7.0,15.0,76,0.00,,,0.00,meteohub,2013-03-12 01:50:00,
2013-03-11 20:55:00,38.7,32.0,29.95,North,350,9.0,15.0,77,0.00,,,0.00,meteohub,2013-03-12 01:55:00,
2013-03-11 21:00:00,38.7,32.0,29.95,North,355,9.0,11.0,77,0.00,,,0.00,meteohub,2013-03-12 02:00:00,
2013-03-11 21:05:00,38.5,32.2,29.95,North,0,9.0,11.0,78,0.00,,,0.00,meteohub,2013-03-12 02:05:00,
2013-03-11 21:10:00,38.1,31.8,29.95,North,0,7.0,11.0,78,0.00,,,0.00,meteohub,2013-03-12 02:10:00,
2013-03-11 21:15:00,37.8,31.5,29.95,NNE,19,9.0,12.0,78,0.00,,,0.00,meteohub,2013-03-12 02:15:00,
2013-03-11 21:20:00,37.4,31.5,29.95,North,355,9.0,12.0,79,0.00,,,0.00,meteohub,2013-03-12 02:20:00,
2013-03-11 21:25:00,36.9,31.3,29.95,North,5,8.0,11.0,80,0.00,,,0.00,meteohub,2013-03-12 02:25:00,
2013-03-11 21:30:00,36.3,31.3,29.95,North,0,9.0,11.0,82,0.00,,,0.00,meteohub,2013-03-12 02:30:00,
2013-03-11 21:35:00,36.1,31.1,29.96,North,355,7.0,10.0,82,0.00,,,0.00,meteohub,2013-03-12 02:35:00,
2013-03-11 21:40:00,36.3,31.3,29.96,NNW,347,5.0,9.0,82,0.00,,,0.00,meteohub,2013-03-12 02:40:00,
2013-03-11 21:45:00,36.9,31.3,29.97,NNW,348,5.0,9.0,80,0.00,,,0.00,meteohub,2013-03-12 02:45:00,
2013-03-11 21:50:00,37.0,31.1,29.97,North,350,5.0,8.0,79,0.00,,,0.00,meteohub,2013-03-12 02:50:00,
2013-03-11 21:55:00,36.7,31.1,29.97,North,350,7.0,8.0,80,0.00,,,0.00,meteohub,2013-03-12 02:55:00,
2013-03-11 22:00:00,36.3,31.1,29.98,NNW,348,7.0,9.0,81,0.00,,,0.00,meteohub,2013-03-12 03:00:00,
2013-03-11 22:05:00,36.3,31.1,29.98,North,355,6.0,9.0,81,0.00,,,0.00,meteohub,2013-03-12 03:05:00,
2013-03-11 22:10:00,36.3,30.7,29.98,NNW,346,8.0,9.0,80,0.00,,,0.00,meteohub,2013-03-12 03:10:00,
2013-03-11 22:15:00,36.3,30.7,29.99,NNW,336,4.0,9.0,80,0.00,,,0.00,meteohub,2013-03-12 03:15:00,
2013-03-11 22:20:00,36.1,30.6,29.99,NNW,346,4.0,9.0,80,0.00,,,0.00,meteohub,2013-03-12 03:20:00,
2013-03-11 22:25:00,35.8,30.2,29.99,NNW,346,5.0,9.0,80,0.00,,,0.00,meteohub,2013-03-12 03:25:00,
2013-03-11 22:30:00,35.4,30.6,29.99,NNW,342,4.0,7.0,82,0.00,,,0.00,meteohub,2013-03-12 03:30:00,
2013-03-11 22:35:00,35.4,30.6,29.99,NNW,346,5.0,7.0,82,0.00,,,0.00,meteohub,2013-03-12 03:35:00,
2013-03-11 22:40:00,35.8,30.6,29.99,North,355,6.0,7.0,81,0.00,,,0.00,meteohub,2013-03-12 03:40:00,
2013-03-11 22:45:00,36.1,30.6,30.00,North,351,10.0,10.0,80,0.00,,,0.00,meteohub,2013-03-12 03:45:00,
2013-03-11 22:50:00,36.7,30.6,30.00,NNW,339,5.0,10.0,78,0.00,,,0.00,meteohub,2013-03-12 03:50:00,
2013-03-11 22:55:00,36.9,30.4,30.00,NNW,346,8.0,10.0,77,0.00,,,0.00,meteohub,2013-03-12 03:55:00,
2013-03-11 23:00:00,36.7,30.6,30.00,North,355,6.0,10.0,78,0.00,,,0.00,meteohub,2013-03-12 04:00:00,
2013-03-11 23:05:00,35.8,29.8,29.99,North,355,7.0,9.0,79,0.00,,,0.00,meteohub,2013-03-12 04:05:00,
2013-03-11 23:10:00,35.4,30.2,30.01,NNW,346,4.0,9.0,81,0.00,,,0.00,meteohub,2013-03-12 04:10:00,
2013-03-11 23:15:00,36.0,30.0,30.01,NNW,343,3.0,9.0,79,0.00,,,0.00,meteohub,2013-03-12 04:15:00,
2013-03-11 23:20:00,36.1,30.0,30.01,NNW,346,4.0,9.0,78,0.00,,,0.00,meteohub,2013-03-12 04:20:00,
2013-03-11 23:25:00,36.3,30.2,30.01,NW,326,6.0,8.0,78,0.00,,,0.00,meteohub,2013-03-12 04:25:00,
2013-03-11 23:30:00,36.1,30.0,30.02,NW,317,4.0,8.0,78,0.00,,,0.00,meteohub,2013-03-12 04:30:00,
2013-03-11 23:35:00,36.0,30.0,30.02,NNW,330,5.0,8.0,79,0.00,,,0.00,meteohub,2013-03-12 04:35:00,
2013-03-11 23:40:00,36.0,29.8,30.03,NNW,329,7.0,9.0,78,0.00,,,0.00,meteohub,2013-03-12 04:40:00,
2013-03-11 23:45:00,35.8,29.8,30.02,NNW,341,7.0,9.0,79,0.00,,,0.00,meteohub,2013-03-12 04:45:00,
2013-03-11 23:50:00,35.6,29.7,30.02,North,355,8.0,10.0,79,0.00,,,0.00,meteohub,2013-03-12 04:50:00,
2013-03-11 23:55:00,35.6,29.7,30.02,North,355,7.0,11.0,79,0.00,,,0.00,meteohub,2013-03-12 04:55:00,